Location: Elaina
(34.1445°N, 106.7742°W)
Time: 12:30:50
(UTC+00:00)

NOSS 3-1 (C) - Pass Details

Date: 18 March 2026
Orbit: 618 x 1583 km, 63.4° (Epoch: 10 January)

Event Time Altitude Azimuth Distance (km) Brightness Sun altitude
Rises 11:56:36 0° 338° (NNW) 3,845 6.5 -16.6°
Reaches altitude 10° 11:59:21 10° 348° (NNW) 3,031 6.1 -16.1°
Maximum altitude 12:06:04 35° 52° (NE) 2,009 5.7 -14.7°
Drops below altitude 10° 12:14:00 10° 114° (ESE) 3,615 7.4 -13.1°
Sets 12:17:33 0° 123° (ESE) 4,678 7.9 -12.4°
